Dewpoint
61 60 60 61 61 61 61 61 61 60 60 60 59 59 59 59 59 59 59 60 60 60 60 60 60 60 60 60 60 59 58 57 57 56 56 56 56 56 56 56 56 56 57 57 57 57 58 53 47 43 47 51 54 55 56 57 56 55 54 54 54 55 56 58 59 60 59 59 59 59 59 58 58 58 58 59 59 59 59 58 58 58 59 59 60 60 60 60 61 61 62 63 64 64 64 63 64 64 66 65 64 63 63
60 60 60 60 60 60 60 60 60 59 59 59 59 59 59 59 59 59 60 60 60 60 60 60 60 60 60 60 60 59 59 58 57 56 56 55 55 55 55 55 55 56 56 56 57 57 58 53 47 43 47 51 53 54 54 55 55 54 54 54 54 55 57 58 59 59 59 59 59 59 59 59 59 59 59 59 59 59 59 59 58 58 58 59 59 59 59 59 59 59 60 61 61 62 62 63 63 64 64 64 63 63 62
60 60 60 60 60 60 60 59 59 59 59 59 59 59 59 59 60 60 61 61 61 61 61 60 60 60 60 60 60 60 59 58 57 56 56 55 55 55 54 55 55 55 56 56 57 57 57 56 49 44 47 51 53 54 54 54 53 53 53 54 54 55 56 58 59 59 59 59 59 59 59 59 59 59 60 60 59 59 59 59 58 58 58 58 59 59 59 59 59 59 59 59 60 60 61 61 62 62 63 63 63 63 63
61 61 61 61 60 60 60 59 59 59 59 59 59 60 60 60 60 60 61 61 61 62 62 61 61 60 60 60 60 59 59 58 57 56 55 55 54 54 54 54 54 55 55 56 57 57 54 54 50 47 47 51 53 54 54 54 53 52 52 54 55 56 57 58 58 59 59 59 59 59 60 60 60 60 60 60 59 59 58 58 58 58 58 58 59 59 59 59 58 58 58 58 59 59 60 60 61 61 61 62 62 62 63
62 62 61 61 61 61 60 60 59 59 59 59 59 59 59 59 60 60 61 61 61 61 61 61 61 61 60 60 60 59 59 58 57 56 55 55 54 53 53 53 54 54 55 55 57 56 52 51 48 47 48 51 52 53 53 54 54 53 52 53 55 57 58 58 59 59 59 59 59 60 60 60 60 60 60 59 59 58 58 58 58 58 58 58 59 59 60 59 59 58 58 58 58 58 58 59 59 60 60 60 61 61 61
63 63 62 63 63 62 61 61 60 59 59 59 59 59 59 59 59 59 60 61 61 60 60 60 60 60 60 60 60 59 59 58 57 56 55 54 54 53 52 52 53 54 54 55 56 56 53 47 44 46 49 51 52 52 52 53 52 52 52 53 57 59 58 59 59 60 60 60 60 60 60 61 60 60 59 59 58 58 58 58 58 58 58 59 59 59 60 60 60 59 58 58 58 58 58 58 59 59 59 59 60 60 60
63 63 63 63 63 63 62 61 61 60 59 59 58 58 58 58 59 59 60 60 60 59 59 58 58 59 59 60 60 60 59 58 57 56 55 54 53 52 52 52 52 53 54 54 56 55 52 46 45 48 50 50 50 50 51 52 52 52 52 54 57 59 59 59 60 60 61 60 60 60 60 60 60 59 59 58 58 58 58 58 58 58 58 59 59 59 60 60 60 60 59 59 58 58 58 59 59 59 59 59 59 60 60
63 62 63 63 63 63 62 62 61 60 59 59 58 58 58 58 59 60 61 61 60 59 59 58 58 58 58 59 59 59 59 59 57 56 55 54 53 52 52 52 52 52 53 54 55 55 53 48 47 49 51 51 51 51 50 51 51 52 52 56 57 58 59 59 60 60 61 60 60 60 60 59 59 59 58 58 58 58 58 58 58 58 58 58 58 59 59 60 60 60 60 59 59 59 59 59 60 60 60 60 60 60 60
63 62 62 63 63 63 62 62 61 60 59 59 59 58 58 59 60 61 61 61 60 59 59 58 58 57 58 58 58 59 59 59 58 56 55 54 53 52 51 51 51 52 53 54 55 55 54 49 48 49 50 51 52 52 52 50 51 51 52 57 58 58 59 59 59 59 60 60 60 59 59 59 58 58 58 58 58 57 57 57 57 57 57 57 58 58 58 59 59 59 60 59 59 59 59 60 60 60 61 60 60 60 61
63 62 62 62 62 62 62 62 61 60 59 59 59 59 59 60 61 61 61 61 60 59 59 58 58 58 57 57 58 58 59 59 57 56 55 54 52 52 51 51 51 52 53 54 54 54 53 49 48 49 50 50 52 52 52 51 52 52 52 57 58 57 58 58 58 58 59 59 59 59 59 58 58 58 58 58 57 57 57 57 57 57 57 57 57 57 58 58 58 59 59 59 58 58 59 59 60 60 60 60 60 60 60
63 63 62 62 62 61 61 61 60 60 59 59 59 59 60 61 62 62 61 60 60 59 59 58 58 58 58 58 58 58 58 58 57 56 54 53 52 52 51 51 51 52 52 53 54 53 52 48 48 49 49 50 52 52 50 51 52 53 54 56 57 57 57 57 57 57 57 58 58 58 58 58 58 58 58 57 57 57 57 56 56 56 56 56 56 57 57 57 58 58 58 58 58 58 58 58 59 59 59 59 59 59 59
63 63 62 62 61 61 60 60 60 60 60 60 60 61 62 62 62 62 61 60 60 59 58 58 58 58 58 58 58 58 57 57 56 55 54 53 52 51 50 50 51 52 52 53 53 52 50 47 47 48 48 49 51 51 51 51 52 52 54 56 57 57 57 57 57 57 57 57 57 57 57 57 58 58 57 57 57 57 56 56 56 56 56 55 55 56 56 57 57 57 58 58 57 57 57 57 57 58 58 58 58 58 58
63 63 62 61 61 60 60 60 61 61 62 62 63 63 64 64 63 61 61 60 59 58 58 58 58 58 58 57 57 57 57 56 55 54 53 52 51 50 50 50 51 52 52 53 52 50 46 45 46 48 48 50 50 51 53 52 52 53 56 57 57 57 57 57 57 57 57 57 57 57 57 57 57 58 57 57 57 56 56 56 56 56 56 55 55 55 56 56 57 57 57 57 57 57 57 57 57 57 57 57 57 57 57
63 63 62 61 61 61 60 61 62 63 64 64 65 65 65 64 62 61 60 59 58 57 57 57 57 57 57 57 57 56 56 56 55 54 53 52 50 49 49 50 51 52 52 53 49 44 41 44 47 48 49 50 51 52 56 54 53 54 57 57 57 57 57 57 58 58 57 58 58 58 58 58 58 58 57 57 56 56 56 56 56 56 56 56 55 55 55 56 56 56 57 57 57 57 57 57 57 57 57 57 57 57 57
63 63 62 62 61 61 61 62 62 63 64 64 64 63 63 61 61 60 59 58 57 57 57 56 56 56 56 56 56 56 55 55 54 53 52 51 49 48 48 50 51 52 53 50 43 38 40 44 48 50 51 51 51 52 55 55 54 55 58 57 57 57 58 58 58 58 57 58 58 58 58 58 58 57 57 56 56 56 56 57 57 57 56 56 56 56 55 55 55 56 56 56 56 57 57 57 57 57 56 56 56 56 56
63 63 62 62 62 61 62 62 62 62 62 63 62 61 60 59 59 58 58 57 57 56 56 55 55 56 56 56 56 55 55 54 53 52 51 49 48 48 48 49 51 52 51 45 39 37 40 46 49 51 52 52 52 53 55 55 55 56 57 57 57 57 57 57 57 57 57 57 57 57 57 57 57 57 56 56 55 56 56 57 57 57 56 56 56 56 55 55 55 55 55 56 56 56 56 56 56 56 56 56 56 56 56
63 63 63 63 63 62 62 62 62 61 61 61 61 60 59 58 57 57 57 56 56 55 54 54 54 55 56 56 56 56 55 54 52 51 50 49 48 48 48 49 51 50 45 40 37 37 42 48 51 52 53 52 53 54 56 55 55 57 57 57 57 57 57 57 56 56 56 56 56 56 56 56 56 55 55 55 55 55 56 57 57 57 56 56 56 56 56 55 55 55 55 55 55 56 56 56 56 56 56 55 55 55 55
63 63 63 63 63 63 63 62 61 61 61 61 60 60 58 57 57 56 56 55 54 53 53 53 54 55 56 57 57 56 53 53 52 51 51 49 49 49 49 50 49 46 39 38 37 39 43 49 51 52 53 52 53 54 57 56 56 57 57 58 57 57 57 57 56 56 55 55 55 55 55 55 55 55 55 55 55 55 56 57 57 57 57 56 56 56 56 56 55 55 55 55 55 55 56 56 56 55 55 55 55 55 55
63 63 63 63 63 63 63 62 61 61 61 60 60 60 59 58 57 57 56 54 53 52 52 52 52 54 56 57 56 54 51 50 50 50 49 49 51 51 50 48 44 40 36 37 38 40 45 49 51 52 52 52 53 55 56 56 56 57 57 57 57 57 57 57 56 56 55 55 55 55 55 55 55 55 55 55 55 56 56 57 57 57 57 56 56 56 56 55 55 55 55 56 56 56 55 55 55 55 55 55 55 55 55
63 63 63 63 63 63 62 62 61 61 61 60 60 60 59 58 58 57 56 54 53 52 52 52 52 54 57 54 51 48 47 48 48 47 47 48 48 48 46 43 39 37 36 37 39 43 47 49 50 51 51 52 53 55 56 56 57 57 57 57 57 57 57 57 56 56 55 55 55 56 56 56 56 56 56 56 55 56 56 56 57 57 57 56 56 55 55 55 55 55 55 56 56 55 55 55 55 55 55 55 55 55 55
61 61 62 62 62 62 61 61 61 61 61 61 60 59 58 59 59 57 56 54 53 53 52 52 51 50 48 45 42 40 40 43 44 44 44 43 43 42 41 40 38 37 37 38 40 44 48 49 49 50 50 51 52 54 57 58 58 57 57 57 57 57 57 56 56 56 55 55 56 56 57 57 57 57 56 56 56 55 55 55 56 56 56 56 55 55 55 55 55 55 55 55 55 55 55 55 55 55 55 54 55 55 55
60 60 60 60 60 60 59 58 58 59 60 61 60 57 57 58 58 57 57 54 53 53 52 52 46 40 38 35 34 34 34 36 39 40 40 39 39 39 39 39 38 37 37 39 42 45 48 48 49 49 50 51 52 53 56 58 58 58 57 57 57 57 56 56 56 56 55 55 56 56 56 57 57 57 56 56 56 55 54 54 55 55 55 55 55 55 55 55 55 55 55 55 55 55 55 54 54 54 54 54 54 54 54
59 59 59 59 59 59 58 57 57 57 58 61 59 57 56 57 56 56 56 52 51 51 50 46 40 35 34 32 31 30 31 34 35 37 37 37 38 38 38 38 38 38 38 39 43 46 47 48 48 49 50 51 52 53 56 57 58 57 57 57 57 56 56 56 56 56 55 55 55 55 56 56 56 56 56 56 55 55 54 54 54 54 54 55 55 55 55 55 55 55 55 54 55 55 54 54 54 54 54 54 54 54 54
59 59 59 59 59 58 57 57 57 57 57 60 58 57 57 56 55 54 53 50 48 47 44 39 35 34 32 31 31 30 31 34 36 37 36 37 37 37 37 37 37 37 38 40 43 45 47 48 48 49 50 51 51 53 56 57 57 57 57 57 56 56 56 56 55 55 55 55 55 55 55 55 55 56 56 55 55 54 54 54 54 54 54 54 54 54 54 55 55 55 55 54 54 54 54 54 54 53 54 54 54 54 54
57 57 58 58 57 57 57 56 55 56 56 58 57 57 56 55 55 53 51 48 44 42 38 35 34 33 32 32 32 31 31 32 33 34 35 36 36 36 35 36 36 37 38 40 43 45 46 47 48 49 50 50 51 52 56 56 56 56 56 56 56 55 55 55 55 55 55 55 54 54 54 54 54 55 55 55 55 54 54 54 54 54 54 54 54 54 54 54 55 55 55 54 54 54 54 54 53 53 53 54 54 54 54
57 57 57 57 57 56 55 55 54 54 55 56 57 56 54 54 52 51 48 44 41 38 35 34 34 33 32 32 32 32 32 32 32 33 33 34 34 34 34 35 36 37 38 40 43 44 46 47 48 49 50 50 50 52 54 55 55 55 55 55 55 54 54 54 55 55 55 54 54 54 53 53 54 54 54 54 54 54 54 54 55 54 54 54 54 53 53 54 54 54 54 54 54 54 54 53 53 53 53 53 54 54 54
56 56 56 56 56 55 54 54 54 54 54 55 55 54 52 51 49 46 43 41 38 36 34 34 34 34 34 33 32 32 33 33 33 34 34 33 33 34 34 35 36 37 39 40 42 43 45 47 48 48 49 49 50 51 52 54 55 55 54 54 54 53 53 53 53 54 54 54 53 53 53 53 53 53 53 54 54 54 54 55 55 55 55 54 54 53 53 53 54 54 54 54 54 53 53 53 53 53 53 53 53 54 54
55 55 55 55 55 55 54 54 54 54 55 54 52 50 48 48 46 43 42 39 37 36 36 37 37 37 37 35 33 32 33 33 34 34 35 35 34 33 34 35 37 38 39 40 41 42 44 46 47 48 49 49 49 50 50 52 54 55 54 53 53 52 52 52 52 52 52 53 52 52 52 52 52 52 53 53 53 53 54 54 55 55 55 55 54 53 53 53 53 53 53 53 53 53 53 53 52 52 52 53 53 53 54
55 55 55 55 55 55 54 54 55 55 55 53 51 48 46 45 43 43 41 39 38 37 38 39 39 39 39 38 35 33 33 33 34 34 35 36 34 33 34 36 37 38 39 39 39 40 43 46 47 48 48 48 49 49 49 52 53 54 53 52 52 52 51 51 51 51 51 52 52 52 52 52 52 52 52 52 53 53 53 54 55 55 55 55 54 54 53 53 52 53 53 53 52 52 52 52 52 52 53 53 53 53 53
54 54 54 55 55 55 55 55 55 55 54 53 51 48 45 44 43 43 42 40 39 38 38 39 39 39 39 37 36 35 37 35 34 34 34 34 34 33 33 34 35 36 37 37 38 39 43 45 47 48 48 48 48 48 48 51 53 53 52 52 51 50 50 50 49 50 50 50 51 51 51 51 51 51 51 52 52 52 53 53 54 55 55 55 54 54 53 52 52 52 52 52 52 52 52 52 52 52 53 53 53 53 53
54 54 55 55 55 55 55 55 54 54 53 52 51 48 46 44 43 42 41 40 39 38 38 38 39 39 39 38 37 37 38 36 34 34 34 34 33 33 33 33 34 35 36 37 37 38 42 45 47 48 48 48 48 48 48 50 52 52 52 51 50 49 49 48 48 48 48 49 49 50 50 50 50 50 50 51 51 52 52 53 53 54 54 54 54 54 53 52 52 52 52 52 52 52 52 52 52 52 53 53 53 52 52
54 54 55 55 54 54 55 54 54 53 53 52 51 49 46 45 43 43 41 39 38 38 38 39 39 39 40 39 39 39 38 37 35 34 34 34 33 33 34 34 35 36 37 37 37 38 40 43 45 46 47 47 48 48 48 48 49 51 52 51 50 49 48 47 47 47 47 48 48 49 49 49 49 49 49 49 50 51 52 52 53 53 53 54 54 53 53 52 52 52 52 52 52 52 52 52 52 52 52 52 52 52 52
54 54 55 54 54 54 54 54 53 53 52 52 51 49 46 45 44 43 42 40 39 38 39 39 39 39 39 39 39 39 39 36 34 34 34 34 34 33 32 33 34 35 36 36 37 37 38 40 42 44 45 45 46 47 47 47 47 48 52 51 49 48 48 47 46 46 46 46 47 48 48 48 48 48 48 48 49 50 51 52 52 52 53 53 53 53 52 52 52 52 52 53 52 52 52 52 52 52 52 52 52 51 51
54 54 54 54 54 54 54 54 53 52 52 52 50 48 45 44 43 42 41 39 38 38 38 39 39 39 39 39 39 39 39 36 35 35 35 35 34 33 32 34 34 34 35 36 36 36 36 37 39 41 43 43 44 44 45 46 46 47 49 52 51 48 47 46 46 45 44 44 45 46 47 47 47 47 47 48 48 49 50 51 52 52 52 52 53 52 52 52 52 52 52 52 53 52 52 51 51 51 51 51 51 51 51
53 54 54 54 54 54 54 54 53 52 52 51 49 46 44 43 42 41 39 38 37 36 36 37 38 38 38 38 38 38 36 34 34 35 35 35 34 34 33 34 34 34 34 35 35 35 35 34 35 38 40 41 42 43 43 45 46 47 48 51 51 49 47 47 46 45 44 44 43 43 44 45 46 46 46 47 47 48 49 50 51 52 52 52 52 52 52 52 51 51 51 52 52 52 52 51 51 51 51 51 51 51 51
53 54 54 54 53 53 54 54 53 52 52 50 48 45 43 43 42 40 39 38 36 36 36 37 37 37 38 37 37 36 35 33 33 34 34 34 34 34 33 33 34 34 34 34 34 34 34 33 34 35 38 40 41 42 43 44 45 46 48 49 50 50 49 48 47 46 45 44 43 43 42 43 44 45 45 45 46 47 48 49 51 52 52 52 52 52 52 52 51 51 51 51 51 52 51 51 51 50 50 50 51 51 51
53 53 53 53 53 53 54 53 53 52 52 50 48 44 43 43 42 41 39 37 36 36 37 38 39 40 39 37 36 36 36 34 34 34 35 35 35 35 33 32 33 34 35 35 36 36 33 33 33 34 37 39 40 41 42 43 44 45 47 47 48 49 48 48 48 47 45 43 43 42 41 41 42 43 44 44 45 45 47 48 50 51 52 52 52 52 52 52 51 51 50 50 50 51 51 51 51 51 50 50 51 51 51
53 53 53 53 53 53 53 53 53 52 52 50 47 45 43 43 42 41 39 37 36 37 38 39 40 41 40 38 37 37 36 34 33 34 35 36 36 36 34 34 34 34 35 37 38 37 32 33 33 34 36 38 40 41 42 43 43 43 45 46 47 47 47 46 47 47 45 44 43 41 40 40 41 42 43 43 43 44 45 47 49 50 51 51 51 52 52 52 51 51 50 50 50 50 50 51 51 51 51 51 51 51 51
53 53 53 53 53 53 53 53 53 52 52 50 47 45 44 43 43 42 39 38 37 37 38 39 39 40 40 39 39 38 39 34 32 33 34 35 35 35 35 36 35 35 36 37 37 36 33 33 34 34 35 37 39 40 42 42 43 43 43 44 45 46 46 44 45 46 46 45 43 41 39 39 39 40 41 41 42 43 43 46 48 49 50 51 51 51 52 51 51 50 50 50 50 50 50 50 51 51 51 51 50 50 50
52 52 52 52 53 53 53 53 52 52 52 50 48 46 44 44 43 42 40 38 38 38 38 38 39 39 40 40 39 38 38 34 32 32 34 34 35 35 36 36 36 36 36 37 37 36 34 34 34 34 35 36 37 38 39 40 41 41 42 42 42 43 42 43 44 45 44 44 43 42 40 38 38 38 39 40 40 41 42 44 47 48 50 50 50 51 52 51 51 50 50 50 50 50 50 50 50 50 50 50 50 50 50
52 52 52 52 52 52 53 52 52 52 52 50 48 46 45 44 43 43 41 39 38 38 38 38 38 38 39 40 39 37 36 34 32 31 33 33 34 34 35 36 36 36 36 37 37 36 34 34 34 34 35 35 36 36 36 36 37 38 38 38 38 39 40 42 43 43 41 42 42 42 43 39 37 37 38 39 39 40 40 43 46 48 49 49 50 50 51 51 51 51 50 50 50 50 50 50 50 50 50 49 49 49 49
52 52 52 52 52 52 52 52 52 52 52 50 48 47 45 44 44 43 42 39 38 38 39 39 39 39 39 40 39 36 34 34 32 30 31 32 33 34 34 35 35 36 36 38 37 36 35 34 34 34 35 35 35 34 34 34 34 34 34 35 37 39 42 42 41 39 38 39 40 41 43 40 39 38 38 38 39 39 40 43 45 48 48 48 49 49 50 51 51 51 50 50 50 50 49 49 49 49 49 49 49 49 49
52 52 52 52 52 52 52 52 52 52 52 50 49 47 46 45 44 43 42 40 39 39 39 40 39 39 39 39 37 35 33 32 31 31 30 31 33 33 34 34 34 35 36 37 37 37 37 37 37 37 37 35 34 34 33 33 33 33 34 36 38 40 40 39 38 37 37 38 38 39 40 42 42 40 39 39 39 39 40 43 45 48 48 48 48 48 49 49 49 50 49 49 49 49 48 48 48 48 48 49 49 49 49
52 51 52 52 52 52 52 52 52 52 52 50 49 48 46 46 45 44 43 41 40 39 40 41 41 39 39 38 36 34 32 31 31 31 30 31 32 33 33 33 34 34 35 36 36 37 37 38 39 40 39 36 34 33 32 32 33 33 35 37 38 39 39 38 38 38 37 37 37 37 38 39 41 42 42 42 41 40 40 42 44 47 48 47 47 47 47 47 47 47 48 48 48 48 48 48 48 48 48 48 48 48 48
51 51 52 52 52 52 52 52 52 52 52 51 49 48 47 46 45 44 43 42 41 40 41 42 42 41 39 37 35 34 32 31 31 31 30 31 31 32 32 33 34 34 34 35 36 36 37 38 39 38 37 36 34 32 32 33 33 34 35 37 38 38 38 38 38 37 37 37 36 36 36 37 38 39 41 42 42 41 41 41 43 46 47 46 46 45 45 44 44 44 44 45 45 46 46 46 47 48 48 48 48 48 48
51 51 51 52 52 52 52 52 52 52 51 51 50 49 48 46 45 44 43 43 42 41 41 42 42 42 42 39 36 34 32 32 32 32 31 31 31 32 33 34 34 34 34 34 35 36 37 38 37 36 35 35 34 33 33 35 35 34 35 37 38 38 37 37 37 36 35 35 35 35 36 35 35 35 37 39 40 41 41 41 43 45 46 45 44 43 43 42 41 41 41 42 43 43 44 45 46 47 48 48 48 48 48
51 51 51 51 52 52 52 52 52 52 51 51 50 49 48 47 46 44 43 43 42 42 42 41 41 41 43 43 39 34 31 32 33 33 33 34 34 35 36 35 34 34 34 34 34 35 37 37 36 35 34 35 34 33 34 37 36 34 34 36 37 38 37 37 36 36 34 35 35 35 36 35 34 34 34 36 38 39 41 41 43 44 45 44 43 41 40 39 39 38 39 39 40 42 43 43 45 46 47 48 48 48 48
52 51 51 51 52 52 52 53 52 52 52 51 50 49 48 47 46 44 43 43 43 43 43 42 41 40 41 41 38 34 32 32 32 33 33 34 34 35 37 35 34 33 34 34 34 35 39 35 34 34 34 34 33 33 33 36 35 34 34 37 38 37 37 36 36 35 35 35 34 34 36 35 34 33 31 34 35 38 39 40 42 43 44 43 42 40 39 38 38 37 37 38 39 40 41 42 43 45 46 47 48 48 48
52 52 51 51 52 52 52 53 53 52 52 51 51 50 49 48 46 45 45 44 43 43 43 43 42 40 39 39 37 35 32 32 33 34 34 33 32 32 33 32 32 32 32 33 34 36 40 35 33 33 33 33 32 32 33 34 34 34 34 37 37 37 36 36 36 35 35 34 33 33 35 35 34 32 30 31 33 35 38 39 40 43 45 44 42 41 39 39 38 37 36 37 38 39 40 41 43 44 45 47 47 48 48
52 52 51 51 51 52 52 53 53 52 52 52 51 51 50 48 48 47 47 45 43 43 43 43 42 40 39 38 37 35 32 32 33 33 32 31 30 30 30 30 31 31 31 33 34 35 37 34 33 32 33 32 32 32 33 33 33 33 34 35 36 36 36 36 35 34 34 32 32 32 34 34 34 33 31 32 32 33 35 37 39 41 44 43 43 43 43 41 39 37 36 37 38 39 40 40 42 43 44 46 47 47 47
52 52 52 51 51 52 52 53 53 52 52 52 52 52 51 50 49 48 46 44 43 43 43 42 41 40 39 38 36 35 32 33 32 31 30 30 30 30 29 30 30 31 30 31 33 35 36 34 32 31 31 32 32 31 32 32 32 32 32 33 34 35 35 35 34 34 33 32 31 32 34 34 34 34 32 32 32 33 33 35 37 39 41 41 42 43 43 42 40 39 37 38 39 40 40 40 40 42 43 45 46 46 47
53 52 52 52 52 52 52 53 53 53 53 52 52 51 51 49 48 47 46 44 44 43 43 41 40 39 38 36 35 34 31 32 32 31 31 30 31 32 32 31 29 27 28 28 30 33 35 34 33 32 31 31 31 31 30 31 31 31 30 31 32 33 34 34 34 33 32 31 31 32 33 34 33 33 32 31 31 32 33 33 34 35 36 38 40 43 43 43 43 42 38 39 39 40 40 40 40 41 43 44 45 46 46
53 53 52 52 52 52 52 53 53 53 53 52 52 51 51 49 48 47 46 45 44 43 42 41 40 39 37 37 35 34 32 33 33 33 33 33 34 35 35 30 26 25 27 26 26 28 30 31 32 32 32 32 31 30 30 30 31 31 31 30 30 30 30 32 32 32 32 31 31 32 33 33 33 32 31 31 31 31 32 31 32 33 33 33 37 41 43 43 41 39 38 39 40 41 40 39 39 40 41 43 44 45 46
54 53 53 52 52 52 52 53 53 53 53 52 52 51 51 49 48 48 47 46 45 43 43 43 41 39 37 35 34 33 33 34 34 34 35 34 34 33 31 30 29 29 31 28 25 25 27 30 31 32 33 32 31 30 29 30 30 30 30 29 29 29 28 30 31 31 32 31 31 32 33 33 33 32 31 31 31 31 30 30 31 31 31 31 33 35 37 42 41 38 37 39 40 41 41 39 39 39 40 42 43 44 45
54 54 53 53 52 52 52 53 53 53 53 53 52 52 51 50 49 48 48 47 45 44 43 42 41 39 37 35 34 33 32 35 35 35 36 37 35 33 33 34 35 35 34 31 29 27 27 30 31 31 32 32 31 30 30 29 29 29 30 30 29 28 28 28 30 30 31 31 32 32 33 33 33 33 31 31 32 31 30 30 30 30 30 31 33 35 38 43 41 38 40 41 42 41 41 39 39 39 40 42 43 43 44
54 54 54 53 53 52 52 53 53 53 53 53 52 52 52 51 50 49 48 48 46 44 43 42 40 39 38 36 34 33 31 33 34 34 34 37 38 38 37 36 34 32 31 30 30 30 30 30 30 30 30 32 31 30 30 29 29 29 32 33 31 29 28 28 28 30 30 31 32 32 33 33 33 33 32 32 32 31 30 30 30 30 30 30 31 34 35 38 38 37 40 41 41 41 41 40 39 40 41 42 42 43 43
54 54 54 54 53 53 52 53 53 54 53 53 53 52 52 52 50 49 49 48 47 45 43 42 40 39 38 37 35 34 32 31 34 35 35 35 38 39 39 37 36 35 34 32 31 31 34 32 30 30 30 32 33 31 30 30 29 29 30 32 31 30 30 29 28 28 29 30 31 32 33 34 34 33 32 31 31 31 31 31 31 31 31 31 31 31 31 32 34 36 39 40 40 39 41 40 40 40 41 42 43 43 43
55 55 54 54 53 53 53 53 53 54 54 54 53 53 52 52 51 50 49 48 47 46 44 43 41 39 38 37 36 34 32 31 32 34 36 35 35 37 37 39 39 39 39 38 37 36 36 34 31 30 30 31 32 33 34 32 30 29 29 30 31 30 29 28 27 27 27 28 30 31 33 34 34 32 31 31 31 31 31 31 31 31 31 31 32 32 31 31 34 38 37 40 41 40 41 40 40 41 42 43 43 43 43
56 55 55 54 54 53 53 53 54 54 54 54 54 53 52 52 52 51 50 49 48 46 44 43 42 40 39 38 36 35 33 32 32 32 34 34 34 34 34 36 38 39 41 40 39 39 38 35 34 33 33 32 32 33 34 33 32 30 29 30 30 30 30 28 27 26 26 26 28 30 32 33 33 32 31 30 31 31 31 31 31 32 31 32 32 32 33 38 40 41 40 43 43 42 41 41 41 42 43 43 43 43 43
56 56 55 54 54 54 53 53 54 54 54 54 54 53 52 52 52 52 51 50 49 48 45 43 42 40 39 38 36 35 34 33 33 33 33 32 32 33 34 34 34 35 38 38 37 37 38 37 36 35 34 33 32 32 32 33 34 33 32 31 30 30 30 29 28 26 25 26 27 29 31 32 32 32 31 30 30 31 32 32 32 33 33 33 32 32 33 35 37 39 43 42 42 41 41 42 42 43 43 43 43 43 43
57 56 56 55 54 54 54 54 54 54 54 54 54 53 53 52 52 52 52 51 49 48 45 44 43 41 40 38 37 36 35 34 34 34 33 32 31 33 35 34 33 33 35 35 35 35 35 36 36 37 36 35 34 32 30 31 32 33 33 33 32 31 30 30 29 28 27 27 27 28 30 30 31 31 30 30 30 31 33 34 34 34 34 33 32 32 33 34 34 35 38 41 42 42 42 42 43 43 43 43 43 43 43